Temperature
20 20 19 19 19 19 21 22 23 23 22 22 22 22 21 20 20 20 20 20 20 20 19 19 19 19 19 19 19 19 19 19 19 19 19 19 19 19 19 19 19 19 19 19 19 19 19 18 18
20 20 19 19 19 20 22 23 23 23 23 23 22 22 21 20 20 20 20 20 20 20 19 19 19 19 19 19 19 19 19 19 19 19 19 19 19 19 19 19 19 19 19 19 19 19 19 18 18
20 19 19 19 20 21 22 23 23 23 23 23 22 21 21 20 20 20 20 20 20 20 19 19 19 19 19 19 19 19 19 19 19 19 19 19 19 19 19 19 19 19 19 19 19 19 18 18 18
20 20 20 20 22 22 23 23 23 23 23 23 22 21 20 20 20 20 20 20 20 20 19 19 19 19 19 19 19 19 19 19 19 19 19 19 19 19 19 19 19 19 19 19 19 18 18 18 18
21 20 20 21 22 23 23 24 24 23 23 22 22 20 20 20 20 20 20 20 20 20 19 19 19 19 19 19 19 19 19 19 19 19 19 19 19 19 19 19 19 19 19 19 19 18 18 18 18
21 20 20 21 23 24 24 24 24 23 22 22 21 20 20 20 20 20 20 20 20 20 19 19 19 19 19 19 19 19 19 19 19 19 19 19 19 19 19 19 19 19 19 18 18 18 18 18 18
21 20 21 22 23 24 24 24 23 23 22 22 22 20 20 20 20 20 20 20 20 19 19 19 19 19 19 19 19 19 19 19 19 19 19 19 19 19 19 19 19 19 18 18 18 18 18 18 18
22 20 22 22 23 24 24 24 24 23 23 22 22 20 20 20 20 20 20 19 19 19 19 19 19 19 19 19 19 19 19 19 19 19 19 19 19 19 19 19 18 18 18 18 18 18 18 18 18
22 21 22 23 23 24 24 24 24 24 23 22 22 22 21 20 20 20 20 19 19 19 19 19 19 19 19 19 19 19 19 19 19 19 19 19 19 19 19 18 18 18 18 18 18 18 18 18 18
22 21 23 24 24 24 25 24 24 23 22 22 21 21 21 20 20 20 20 19 19 19 19 19 19 19 19 19 19 19 19 19 19 19 19 19 19 19 18 18 18 18 18 18 18 18 18 18 18
22 22 24 25 26 25 25 24 24 23 22 22 22 21 21 20 20 20 20 20 20 19 19 19 19 19 19 19 19 19 19 19 19 19 19 19 18 18 18 18 18 18 18 18 18 18 18 18 18
23 23 25 26 26 26 25 24 24 23 24 24 23 22 21 20 20 20 20 20 20 19 19 19 19 19 19 19 19 19 19 19 19 19 19 19 19 18 18 18 18 18 18 18 18 18 18 18 18
24 25 26 26 26 26 25 24 24 23 24 23 22 22 21 21 21 20 20 20 20 19 19 19 19 19 19 19 19 19 19 19 19 19 18 19 19 19 18 18 18 18 18 18 18 18 18 18 17
25 25 26 26 26 26 24 24 23 23 23 22 22 21 21 21 21 20 20 20 20 20 19 19 19 19 19 19 19 19 19 19 19 19 18 18 18 18 18 18 18 18 18 18 18 18 18 18 18
26 25 25 25 25 25 25 23 23 22 22 21 21 21 21 21 21 21 21 20 20 20 20 19 19 19 19 19 19 19 19 19 19 19 18 18 18 18 18 18 18 18 18 18 18 18 18 18 18
25 24 24 25 25 25 25 23 23 22 22 21 21 21 21 21 21 21 21 20 20 20 20 19 19 19 19 19 19 19 19 19 19 19 19 18 18 18 18 18 18 18 18 18 18 18 18 18 18
23 23 24 25 25 24 24 23 22 22 21 20 20 20 20 20 21 21 21 20 20 20 20 20 19 19 19 19 19 19 19 19 19 19 19 18 18 18 18 18 18 18 18 18 18 18 18 18 18
24 24 24 24 25 24 23 22 22 21 21 21 20 20 20 20 21 21 21 21 20 20 20 20 20 19 19 19 19 19 19 19 19 19 18 18 18 18 18 18 18 18 18 18 18 18 17 18 18
24 24 24 24 24 24 23 22 22 21 21 21 21 21 20 21 21 21 21 20 20 20 20 20 20 19 19 19 19 19 19 19 19 19 18 18 18 18 18 18 18 18 18 18 18 18 18 18 17
24 24 23 23 24 24 22 22 22 21 21 21 21 21 21 21 21 21 21 20 20 20 20 20 20 20 19 19 19 19 19 19 19 19 19 18 18 18 18 18 18 18 18 18 18 18 18 18 17
24 23 23 23 23 23 23 22 22 22 22 21 21 21 21 21 21 21 21 20 20 20 20 20 20 20 20 19 19 19 19 19 19 19 19 18 18 18 18 18 18 18 18 18 18 18 18 18 17
23 24 24 24 23 21 23 21 22 21 20 21 21 21 21 21 21 21 21 21 21 21 20 20 20 20 20 19 19 19 19 19 19 19 19 18 18 18 18 18 18 18 18 18 18 18 18 17 17
24 24 24 23 22 21 21 21 20 20 20 20 21 21 21 21 21 22 22 21 21 21 21 20 20 20 20 20 20 19 19 19 19 19 19 19 18 18 18 18 18 18 18 18 18 18 18 18 17
24 23 22 19 19 21 21 21 20 19 20 20 20 21 21 22 22 22 22 21 21 21 21 20 20 20 20 20 20 19 19 19 19 19 19 19 19 18 18 18 18 18 18 18 18 18 18 17 17
23 21 21 21 19 20 20 20 20 20 20 20 20 21 22 22 22 22 22 21 21 21 21 21 21 20 20 20 20 20 19 19 19 19 19 19 19 19 19 18 18 18 18 18 18 18 17 17 17
22 21 21 21 20 19 20 20 20 21 21 21 21 21 21 22 21 22 22 22 21 21 21 21 21 20 20 20 20 20 19 19 19 19 19 19 19 18 18 18 18 18 18 18 18 17 18 17 17
22 20 20 18 19 19 19 19 20 21 20 20 20 20 20 21 21 21 21 22 22 21 21 21 21 21 20 20 20 20 19 19 19 19 19 18 18 18 18 18 18 18 18 18 18 18 18 17 17
22 19 17 18 19 20 20 20 20 20 20 19 19 19 20 21 21 21 21 21 21 21 21 21 21 21 20 20 20 20 20 19 19 19 19 19 18 18 18 18 18 18 18 18 18 18 18 17 17
21 20 17 16 17 19 19 20 20 19 19 19 19 20 20 20 21 21 21 21 21 21 21 21 20 20 20 20 20 20 20 19 19 19 19 19 18 18 18 18 18 18 18 18 18 18 18 17 17
22 20 18 19 18 17 18 19 20 19 19 19 19 20 20 20 21 21 21 21 21 21 21 21 20 20 20 20 19 19 19 19 19 19 19 18 18 18 18 18 18 18 18 18 18 17 17 17 17
Wind_Speed
9 7 3 1 2 4 2 3 0 2 3 3 4 5 5 3 1 1 1 4 5 6 8 11 13 13 14 16 17 18 18 18 19 19 20 20 21 21 20 19 19 18 18 18 17 16 15 15 15
7 5 2 1 4 3 3 2 2 2 3 4 5 5 5 3 2 2 1 2 4 6 7 10 13 13 15 16 16 18 18 18 18 19 19 19 20 20 19 19 18 18 18 17 16 16 15 15 15
8 4 0 3 3 1 2 1 3 3 3 2 4 5 3 2 2 1 1 4 5 5 7 10 13 14 15 16 16 17 17 17 18 18 19 19 19 19 19 18 18 18 18 17 16 15 14 14 14
4 1 2 3 2 2 3 2 3 4 3 5 4 4 3 3 1 2 4 6 6 4 7 10 13 14 15 16 16 17 17 17 17 17 17 18 18 18 18 17 17 17 17 16 15 14 13 13 12
1 2 4 3 3 2 1 2 2 2 2 3 4 4 3 3 5 7 7 6 6 5 6 9 12 14 15 15 16 16 16 16 16 16 16 17 17 17 17 17 17 17 16 15 14 13 12 11 11
2 3 4 3 4 3 2 3 3 3 3 4 4 3 2 2 5 6 6 5 4 4 5 7 11 12 14 14 15 15 15 16 15 15 16 16 16 16 16 16 16 16 15 14 13 12 11 10 10
3 3 1 1 1 2 1 2 3 3 3 3 4 4 1 1 4 6 6 6 5 5 5 5 7 10 12 13 13 14 14 15 15 15 15 15 15 15 15 15 15 15 14 13 11 10 9 9 9
3 3 1 0 1 2 2 2 2 4 3 4 5 5 3 3 6 7 7 6 6 5 4 4 5 6 8 10 13 13 13 14 14 14 14 14 14 14 14 13 14 14 13 11 10 8 8 8 8
3 3 1 3 4 3 2 2 1 3 5 3 2 3 5 10 10 8 6 5 4 4 3 4 4 4 6 8 10 11 12 13 12 12 12 11 9 9 10 11 12 13 11 10 8 7 6 6 6
3 2 5 4 4 3 3 2 3 4 4 2 4 6 10 12 10 9 7 6 4 3 3 3 3 3 4 6 6 6 7 8 8 8 8 8 7 7 8 9 11 11 10 9 7 6 5 4 3
4 5 3 2 3 3 2 2 3 7 3 5 7 11 12 11 9 8 7 6 5 4 3 3 3 3 3 3 5 4 5 6 6 7 8 8 7 6 5 4 5 7 8 5 5 4 3 3 2
3 5 4 2 1 2 3 3 3 4 4 6 11 14 13 12 10 9 8 6 5 4 3 3 3 3 3 4 4 4 4 4 4 6 7 7 4 4 3 3 3 4 4 4 3 2 2 2 2
3 3 2 2 1 2 4 3 3 1 4 10 12 13 12 11 9 6 6 5 5 4 4 3 3 4 4 4 3 4 4 4 5 5 6 7 5 4 3 3 3 3 3 3 2 2 2 1 0
2 1 1 2 2 2 5 3 3 2 8 11 11 10 10 11 10 7 6 6 5 5 4 3 3 3 4 3 3 3 4 4 5 5 6 7 6 4 4 3 3 3 3 4 3 2 2 1 1
1 3 4 2 2 2 5 3 0 3 8 10 9 9 9 9 9 9 8 7 6 5 4 4 4 4 4 3 4 3 4 5 4 5 6 7 7 6 4 3 3 3 4 4 3 2 2 1 1
4 4 2 3 1 2 4 3 2 6 9 8 8 8 7 7 8 7 7 6 5 5 4 4 4 4 4 3 3 3 4 4 4 5 5 6 7 7 5 3 3 4 4 3 3 2 2 1 1
5 1 2 3 0 2 3 3 3 7 9 8 8 7 7 6 6 6 7 6 5 5 5 4 3 4 4 3 3 3 3 4 4 5 5 6 7 7 6 4 3 4 3 3 3 3 3 2 1
2 2 2 3 2 2 2 3 3 7 9 8 7 7 7 8 8 7 6 6 5 5 5 5 4 3 3 2 2 2 1 2 3 4 5 6 6 7 6 4 4 4 3 3 3 3 2 2 2
4 2 4 4 2 2 2 3 4 6 7 6 6 7 8 8 6 6 6 6 5 5 5 4 4 4 3 2 2 2 2 2 2 3 5 6 7 7 6 4 4 4 4 4 4 3 3 2 2
3 1 3 4 1 2 1 2 3 5 7 7 8 8 9 6 5 6 6 6 6 6 6 5 5 4 4 3 2 2 2 1 2 2 3 6 7 7 7 6 5 4 4 4 4 3 2 2 2
3 5 5 3 2 3 2 4 2 2 2 3 4 6 7 9 9 8 8 8 8 8 8 7 6 5 4 4 3 2 2 1 1 1 2 4 6 7 7 6 5 5 5 5 5 5 4 3 2
5 6 5 3 2 2 1 2 6 3 3 5 6 5 6 7 9 9 9 9 9 10 8 7 6 6 5 5 5 4 3 3 3 2 2 2 4 5 6 6 6 6 5 6 6 5 4 4 3
6 2 3 2 3 1 2 2 7 2 4 6 6 7 7 7 9 10 11 10 9 9 8 7 6 5 5 6 6 5 4 3 2 1 2 2 2 4 5 6 6 5 5 6 6 5 5 5 4
3 6 6 6 5 1 3 3 6 4 5 5 5 6 6 7 8 8 8 7 7 8 7 7 6 5 5 5 6 6 6 4 3 3 3 3 2 3 4 5 5 5 5 5 6 6 6 6 5
5 6 4 4 3 4 2 2 7 6 5 5 5 5 5 5 7 8 8 8 8 9 9 8 8 7 6 5 5 6 6 5 5 4 4 4 3 3 4 4 5 5 5 5 5 5 6 6 6
4 8 7 5 5 4 2 4 6 5 4 2 1 2 2 2 4 6 8 9 9 8 8 8 8 7 6 6 6 5 5 5 4 4 4 4 4 4 4 5 5 5 5 5 5 5 6 6 7
5 3 6 7 3 0 4 6 7 3 4 4 3 2 1 2 3 4 5 6 6 7 7 8 7 6 6 7 6 5 5 5 5 5 4 4 4 4 4 4 5 5 5 5 5 5 6 5 6
5 7 6 6 5 3 4 4 5 5 3 3 1 0 1 1 2 3 3 4 4 5 5 5 6 7 6 5 5 5 5 5 4 4 5 5 5 4 4 4 4 5 5 5 5 4 5 5 6
3 5 6 5 5 6 4 7 5 5 4 3 3 1 1 1 2 3 3 3 3 3 3 4 4 4 4 5 4 4 4 4 4 4 5 5 5 4 5 5 4 5 5 5 5 5 5 6 6
3 5 6 5 3 4 4 7 3 3 3 3 2 1 0 1 2 3 4 3 3 2 3 4 4 4 5 5 4 4 3 3 3 4 4 3 4 4 5 5 5 5 5 5 5 6 6 6 7
Wind_Direction
157 146 144 177 51 44 354 326 15 43 41 32 69 84 97 89 118 165 347 117 122 135 145 148 143 139 137 135 136 136 135 135 136 138 139 140 140 140 138 137 136 135 134 131 130 129 129 128 128
150 155 186 58 64 39 325 334 34 63 131 117 68 65 72 63 57 96 94 139 132 140 144 148 147 142 140 138 137 136 136 136 137 139 140 141 141 142 141 141 139 137 135 132 131 131 130 129 129
163 192 121 63 68 163 271 316 106 90 96 78 67 52 65 62 83 129 178 133 118 128 144 150 150 147 145 143 141 139 138 138 139 140 141 142 143 145 145 144 142 140 137 134 133 132 131 132 133
161 171 46 55 5 251 211 200 131 117 56 51 85 68 50 29 80 127 119 116 115 127 141 150 151 149 148 146 144 143 141 141 141 141 141 143 144 145 147 146 145 142 139 137 136 134 131 133 136
131 79 46 21 331 314 151 150 133 105 78 68 87 85 36 15 75 102 110 116 124 127 138 150 153 151 151 148 145 144 145 145 145 145 145 145 146 148 150 149 147 144 141 139 137 135 134 134 139
71 64 58 3 340 360 67 107 106 89 97 95 96 93 30 51 93 110 110 104 108 122 134 147 152 151 150 148 148 148 149 149 149 149 148 149 150 151 152 151 149 146 144 141 138 137 137 136 138
101 84 91 245 327 353 158 100 119 125 117 123 124 105 56 92 114 114 101 88 82 95 113 126 142 144 143 148 152 152 153 152 151 149 149 152 154 155 156 155 153 150 148 145 141 138 136 136 137
143 100 25 278 190 254 179 106 121 130 120 119 121 136 181 173 125 107 93 82 78 79 89 109 117 128 138 146 153 153 153 153 152 152 152 154 155 156 158 157 157 153 151 148 145 138 133 139 140
129 71 266 222 191 216 177 117 114 96 106 100 104 137 147 132 124 113 103 90 88 89 78 93 108 119 133 142 150 152 153 155 155 156 157 153 150 152 157 159 162 158 155 153 149 139 132 138 142
120 153 237 215 186 186 184 160 149 114 112 103 84 92 120 130 137 139 141 140 137 129 111 98 108 113 123 140 137 138 141 142 143 145 149 145 142 148 153 160 163 161 161 160 155 148 139 122 126
171 207 250 256 190 160 157 150 132 138 170 186 161 143 140 143 150 156 160 158 155 141 132 113 112 112 119 124 124 122 128 130 133 140 143 144 141 145 145 151 165 162 158 150 150 141 130 115 102
188 247 233 242 143 126 152 142 127 168 202 164 151 146 150 156 164 171 170 165 148 136 149 131 120 120 123 125 128 128 131 133 141 149 149 147 141 140 142 142 148 150 154 144 139 121 120 115 121
207 267 254 212 72 126 122 129 142 158 119 121 132 143 156 164 170 170 166 163 155 161 163 148 139 140 133 130 143 143 149 155 158 157 159 160 155 156 149 144 154 159 159 152 138 130 125 127 159
235 236 14 45 83 90 112 90 91 122 123 127 139 153 165 171 173 168 167 172 173 177 176 163 151 151 138 139 149 153 160 162 162 169 175 172 172 166 159 157 163 174 175 171 166 166 160 174 215
72 49 14 35 75 92 100 40 166 155 134 140 153 162 170 176 178 179 180 180 181 181 175 173 167 150 147 151 163 163 164 166 171 177 179 178 177 175 170 166 173 187 176 166 165 161 151 171 197
48 49 0 296 92 117 114 244 231 151 146 153 164 169 176 185 189 184 178 178 176 171 171 181 179 157 158 153 153 156 163 169 179 182 183 183 184 180 174 175 185 186 172 162 160 166 156 181 201
35 51 273 303 208 120 142 238 223 168 159 167 173 176 178 186 196 191 182 178 177 177 174 177 174 164 166 158 146 150 157 172 183 182 188 190 188 181 179 186 194 183 172 170 177 168 166 180 210
228 234 264 261 285 108 173 251 222 181 175 180 182 184 188 196 204 193 185 179 175 177 175 176 168 161 151 140 124 118 136 171 184 190 196 189 189 184 183 190 191 180 170 180 178 168 165 177 191
178 196 261 270 252 144 206 249 233 194 186 187 193 197 203 207 194 176 177 174 172 180 181 181 172 167 149 148 159 165 186 185 193 205 204 195 193 188 188 192 184 178 183 189 178 160 164 169 148
173 230 279 308 26 145 206 294 251 203 201 198 198 201 205 198 184 182 177 175 180 192 196 187 184 176 172 176 172 168 159 177 195 206 204 199 195 192 194 187 191 184 180 179 178 166 167 183 162
218 201 223 228 9 39 66 337 305 273 211 209 210 205 201 199 197 193 190 190 191 197 200 198 191 184 180 170 143 124 91 66 109 183 204 201 198 199 201 198 193 186 184 193 195 186 182 191 190
251 224 197 189 114 305 89 275 290 273 273 237 229 213 211 209 196 193 195 195 201 204 199 190 186 183 178 168 166 169 180 198 215 201 200 198 197 200 202 203 199 193 192 197 203 196 188 181 199
219 188 156 155 139 34 19 159 289 315 277 260 238 222 214 203 194 194 196 196 197 195 191 186 180 183 179 175 180 181 193 203 200 185 188 201 204 206 204 202 200 199 200 201 203 198 195 196 200
150 69 57 52 72 343 266 173 280 259 244 262 238 226 218 202 195 194 188 180 184 186 185 180 176 189 183 181 184 189 194 195 193 207 208 213 216 215 213 207 201 202 203 204 207 206 204 206 208
88 89 41 8 14 253 273 186 252 265 255 243 240 224 213 200 192 188 177 176 183 188 187 183 182 190 186 183 193 199 201 198 201 211 213 214 218 222 219 212 204 205 210 208 204 206 211 209 210
167 140 157 192 213 266 319 232 256 281 294 283 244 187 157 177 190 191 186 182 185 186 185 185 188 193 187 192 203 203 201 203 212 212 211 215 220 225 218 207 209 211 211 214 207 214 219 216 219
134 155 155 134 137 156 281 288 302 330 2 16 45 77 115 176 179 176 171 171 175 183 193 188 186 192 194 200 200 202 204 207 215 216 216 221 226 228 215 208 211 214 213 213 210 221 225 218 223
124 138 99 121 147 222 283 273 256 289 300 331 356 245 233 190 142 139 148 160 170 182 189 188 192 196 194 194 203 211 211 216 219 217 225 228 230 226 214 213 212 214 213 211 213 226 229 223 230
85 85 97 108 144 158 225 264 229 217 227 227 255 266 227 199 152 141 142 144 155 163 172 193 200 192 189 194 202 211 214 216 217 224 231 230 232 223 219 215 210 213 214 210 211 225 226 225 233
142 146 141 147 202 172 181 257 282 213 211 200 241 310 300 127 131 138 145 142 141 158 174 191 194 196 198 194 194 207 205 200 216 231 239 234 233 230 224 215 215 223 225 217 217 230 230 228 235
Height
1486 1486 1487 1489 1491 1498 1498 1490 1484 1484 1484 1484 1483 1484 1486 1489 1492 1496 1491 1489 1489 1489 1490 1492 1494 1495 1498 1500 1502 1504 1506 1508 1511 1513 1515 1518 1520 1523 1525 1528 1530 1533 1535 1537 1540 1542 1544 1546 1548
1486 1487 1489 1490 1496 1508 1501 1488 1486 1484 1484 1485 1485 1486 1487 1488 1489 1490 1489 1489 1489 1490 1491 1493 1495 1497 1499 1501 1504 1506 1508 1510 1512 1515 1517 1519 1522 1524 1527 1529 1532 1534 1537 1539 1541 1543 1546 1547 1549
1487 1488 1490 1491 1498 1505 1498 1488 1486 1485 1485 1485 1487 1488 1489 1490 1490 1490 1490 1489 1490 1490 1492 1494 1497 1499 1501 1503 1506 1508 1510 1512 1514 1516 1519 1521 1523 1526 1528 1531 1534 1536 1538 1540 1543 1545 1547 1549 1550
1488 1490 1491 1496 1499 1494 1490 1486 1485 1486 1486 1487 1488 1490 1491 1492 1492 1491 1490 1490 1491 1492 1493 1496 1498 1501 1503 1505 1507 1509 1512 1514 1516 1518 1520 1523 1525 1527 1530 1533 1535 1537 1539 1542 1544 1546 1548 1550 1552
1489 1491 1495 1501 1497 1490 1486 1485 1486 1486 1488 1489 1489 1492 1493 1494 1493 1493 1492 1493 1493 1493 1495 1497 1500 1502 1504 1506 1509 1511 1513 1515 1517 1520 1522 1524 1527 1529 1532 1534 1537 1539 1541 1543 1545 1547 1549 1551 1553
1490 1492 1503 1506 1497 1489 1486 1486 1487 1488 1489 1490 1491 1493 1494 1495 1495 1495 1495 1495 1495 1495 1496 1498 1501 1503 1505 1508 1510 1512 1514 1517 1519 1521 1523 1526 1528 1531 1533 1536 1538 1540 1542 1544 1546 1548 1550 1552 1554
1492 1495 1502 1501 1498 1492 1488 1487 1488 1489 1490 1491 1492 1494 1495 1496 1497 1497 1497 1498 1497 1497 1497 1499 1502 1504 1507 1509 1511 1514 1516 1518 1520 1523 1525 1527 1530 1532 1535 1537 1539 1541 1543 1545 1547 1549 1551 1553 1555
1491 1496 1499 1500 1498 1494 1488 1488 1489 1489 1491 1492 1493 1494 1495 1497 1498 1498 1499 1500 1500 1500 1500 1501 1504 1506 1508 1511 1513 1515 1517 1520 1522 1524 1526 1529 1531 1533 1536 1538 1540 1542 1544 1547 1548 1550 1551 1553 1555
1492 1499 1503 1497 1495 1491 1488 1489 1490 1491 1492 1493 1493 1494 1495 1496 1498 1500 1501 1501 1502 1502 1502 1504 1506 1508 1510 1512 1514 1516 1519 1522 1524 1526 1528 1530 1532 1534 1536 1539 1540 1542 1545 1547 1549 1551 1552 1554 1556
1492 1500 1494 1487 1486 1486 1487 1488 1489 1491 1492 1493 1493 1494 1496 1497 1499 1500 1501 1502 1504 1505 1505 1506 1508 1510 1512 1514 1516 1518 1520 1523 1525 1527 1529 1531 1533 1535 1537 1539 1541 1543 1546 1548 1550 1552 1553 1555 1557
1490 1492 1486 1484 1484 1485 1486 1488 1489 1490 1493 1492 1492 1494 1496 1498 1500 1501 1503 1504 1505 1507 1508 1509 1510 1512 1513 1515 1517 1519 1521 1523 1526 1528 1530 1532 1534 1536 1538 1540 1543 1545 1547 1549 1551 1552 1554 1556 1557
1489 1486 1484 1483 1484 1485 1487 1488 1489 1490 1490 1490 1492 1494 1496 1499 1501 1502 1504 1506 1508 1509 1510 1511 1512 1513 1515 1516 1518 1520 1522 1524 1527 1529 1531 1533 1535 1537 1539 1541 1543 1545 1547 1549 1551 1553 1555 1556 1558
1487 1485 1483 1484 1484 1485 1486 1488 1489 1490 1490 1491 1493 1496 1498 1499 1501 1504 1506 1508 1509 1510 1511 1512 1514 1515 1516 1517 1519 1521 1523 1525 1528 1530 1532 1534 1536 1538 1540 1542 1544 1546 1547 1549 1552 1553 1555 1557 1559
1485 1484 1484 1484 1485 1486 1487 1489 1490 1491 1491 1492 1494 1496 1498 1500 1502 1504 1506 1508 1509 1511 1512 1513 1515 1516 1517 1518 1520 1522 1524 1526 1528 1531 1533 1535 1537 1539 1540 1542 1544 1546 1549 1550 1552 1554 1555 1557 1559
1484 1486 1487 1486 1486 1487 1489 1493 1492 1491 1492 1493 1495 1497 1499 1501 1503 1504 1506 1508 1510 1512 1513 1514 1516 1517 1518 1519 1520 1522 1524 1526 1528 1531 1533 1535 1537 1539 1541 1542 1545 1547 1549 1551 1553 1554 1555 1557 1558
1486 1492 1497 1489 1487 1488 1493 1501 1492 1491 1492 1494 1496 1497 1499 1501 1503 1505 1507 1509 1511 1513 1514 1515 1517 1518 1519 1520 1521 1523 1525 1526 1529 1531 1533 1535 1537 1539 1541 1543 1545 1547 1549 1551 1552 1554 1555 1556 1557
1498 1504 1501 1494 1487 1488 1493 1498 1491 1491 1492 1494 1495 1497 1499 1501 1503 1505 1507 1509 1511 1513 1514 1516 1517 1518 1519 1521 1522 1524 1525 1527 1529 1531 1532 1535 1537 1539 1541 1543 1545 1547 1549 1550 1552 1553 1554 1556 1557
1505 1503 1501 1498 1490 1490 1494 1495 1491 1491 1492 1493 1495 1497 1499 1500 1502 1505 1507 1509 1511 1513 1515 1516 1517 1519 1520 1521 1523 1524 1526 1527 1529 1530 1532 1534 1536 1539 1541 1543 1544 1546 1548 1550 1551 1552 1554 1555 1556
1494 1498 1501 1496 1489 1493 1495 1495 1492 1491 1492 1494 1495 1496 1498 1499 1502 1504 1507 1509 1511 1513 1514 1516 1517 1518 1520 1521 1523 1524 1525 1527 1528 1530 1531 1533 1536 1538 1540 1542 1544 1545 1547 1549 1550 1551 1553 1554 1555
1492 1499 1500 1495 1489 1492 1497 1496 1491 1490 1491 1492 1493 1494 1496 1499 1501 1503 1505 1507 1509 1511 1513 1514 1516 1518 1520 1521 1523 1524 1525 1526 1528 1529 1530 1532 1535 1537 1539 1541 1542 1544 1546 1548 1549 1550 1551 1552 1554
1493 1497 1497 1498 1494 1493 1496 1500 1495 1490 1491 1492 1492 1493 1494 1496 1498 1500 1502 1504 1507 1509 1511 1513 1515 1517 1519 1521 1523 1524 1525 1526 1527 1528 1529 1531 1534 1536 1538 1540 1541 1543 1544 1546 1547 1548 1549 1550 1552
1496 1487 1489 1493 1502 1508 1502 1517 1500 1493 1492 1490 1490 1490 1491 1493 1494 1497 1499 1501 1503 1506 1509 1511 1514 1516 1518 1520 1521 1523 1524 1524 1526 1527 1528 1530 1532 1535 1536 1538 1540 1541 1543 1544 1546 1547 1548 1549 1549
1486 1482 1487 1492 1501 1510 1508 1516 1508 1495 1494 1489 1487 1487 1488 1489 1491 1493 1495 1498 1501 1503 1506 1509 1512 1514 1516 1518 1520 1521 1522 1524 1525 1526 1528 1529 1532 1533 1535 1536 1538 1539 1541 1542 1543 1545 1546 1547 1548
1480 1487 1493 1502 1510 1522 1513 1518 1514 1501 1492 1486 1484 1484 1485 1486 1488 1490 1493 1497 1499 1502 1504 1506 1510 1512 1515 1516 1518 1519 1520 1522 1523 1524 1526 1528 1530 1531 1533 1535 1536 1537 1538 1540 1541 1542 1544 1545 1545
1484 1501 1520 1522 1532 1527 1512 1516 1510 1490 1485 1483 1482 1481 1481 1483 1486 1488 1490 1493 1496 1500 1502 1505 1508 1510 1512 1514 1516 1518 1519 1520 1521 1523 1524 1526 1527 1529 1530 1532 1533 1535 1536 1537 1539 1540 1541 1542 1542
1487 1496 1519 1529 1533 1527 1515 1516 1500 1485 1482 1480 1479 1479 1480 1482 1484 1486 1488 1491 1494 1497 1500 1503 1505 1507 1509 1512 1514 1516 1517 1519 1520 1521 1522 1524 1524 1526 1528 1529 1531 1532 1534 1535 1536 1537 1537 1538 1539
1488 1495 1496 1515 1522 1528 1521 1509 1494 1483 1481 1480 1479 1479 1480 1481 1483 1485 1487 1490 1493 1495 1497 1500 1502 1504 1507 1509 1511 1513 1515 1516 1517 1519 1521 1522 1523 1524 1525 1526 1528 1529 1530 1531 1532 1533 1534 1535 1536
1480 1489 1504 1516 1529 1532 1521 1513 1505 1490 1486 1482 1481 1480 1479 1481 1483 1484 1486 1489 1491 1493 1496 1499 1500 1502 1504 1507 1509 1510 1512 1514 1515 1516 1518 1519 1520 1521 1522 1524 1525 1526 1527 1528 1528 1529 1530 1531 1531
1486 1493 1503 1514 1516 1527 1529 1516 1487 1486 1483 1482 1480 1480 1480 1481 1482 1483 1485 1488 1490 1492 1494 1496 1498 1500 1502 1504 1506 1507 1509 1511 1512 1513 1514 1515 1517 1518 1519 1520 1521 1522 1523 1524 1524 1525 1526 1527 1527
1479 1487 1497 1508 1516 1519 1521 1511 1481 1480 1479 1480 1480 1480 1480 1481 1482 1483 1485 1487 1489 1490 1492 1494 1496 1498 1499 1501 1503 1504 1506 1507 1508 1509 1511 1512 1513 1514 1515 1516 1516 1517 1518 1519 1520 1521 1522 1522 1523